Погода в Комрате

Погода в Комрате : погода сейчас, прогноз погоды и архив. Всё, что Вы хотите узнать о погоде в Комрате!

Поиск расширенной информации на нашем сайте:

Другие новости

Новости СМИ2

Главная страница сайта

Новости сайта

03.07.2017

Напоминаем, что на нашем специализированном сайте Метеоцентр.Азия вы можете получить высокодетализированные автоматические прогнозы погоды по пунктам России, СНГ и мира в авиационном формате (включающие направление и скорость ветра, видимость, явления погоды, количество и форму облачности, нижнюю и верхнюю границу облачности).


Погода в Комрате - сегодня

Время (UTC), дата Ветер
(°,м/с) 
Видим.   Явления Облачность Т
(°С)
Тd
(°С)
f(%) Тe
(°С)
Pmin
(гПа)
dP
(гПа)
Po
(мм)
O2
(г/м3)
Тmin Tmax R s Состояние
почвы
03 18.09.17 тихо ()   10 км    ясно 
+17 +11.1 68 +20  1011.6  -0.7  747  281           
06 18.09.17 300 (СЗ) 20000 м    3/1 450 м верхняя 
[Cu med, cong|Ci sp]
+22.6 +12 51 +27  1013  1.7  748  276  +16.6         
09 18.09.17 340 (С) 20000 м    ясно 
+27.6 +8 29 +28  1012.8  0.1  748  272           
12 18.09.17 350 (С) 20000 м    ясно 
+28.8 +9 29 +29  1012.4  -0.4  748  271           
15 18.09.17 340 (С) 20000 м    ясно 
+27.1 +7.6 29 +27  1012.2  -0.3  748  273           
18 18.09.17 350 (С) 10 км    ясно 
+20.6 +3.8 33 +21  1013.9  1.4  749  280    +29.2       
21 18.09.17 340 (С) 10 км    ясно 
+18.5 +3.9 38 +19  1015.1  749  282           
00 19.09.17 350 (С) 10 км    ясно 
+17.3 +5.3 45 +18  1015.9  0.8  750  283           
03 19.09.17 010 (С) 10 км    4/0 средняя 
[Ac As]
+16 +5.6 50 +17  1016.4  0.4  750  285           
06 19.09.17 030 (СВ) 20000 м  в посл. час ливневой дождь  9/9 600 м кучево-дожд. 
[Cb calv]
+15.9 +6.3 53 +16  1017  0.6  751  285  +15.7    0.3     
09 19.09.17 030 (СВ) 20000 м    9/8 600 м кучево-дожд., средняя 
[Cb calv|Ac trans]
+19.4 +5.5 40 +20  1016  -0.8  750  281           
12 19.09.17 040 (СВ) 20000 м    8/0 средняя, верхняя 
[Ac cast|Ci sp]
+23.8 +4.2 28 +24  1014.1  -1.7  749  277           
15 19.09.17 030 (СВ) 20000 м    8/0 верхняя 
[Ci sp]
+24.4 +5.2 29 +24  1012.3  -1.7  748  276           
18 19.09.17 040 (СВ) 10 км    ясно 
+22.2 +4.7 32 +22  1012.2  -0.2  747  278    +25       
21 19.09.17 010 (С) 10 км    ясно 
+17.7 +5 43 +19  1011.9  -0.6  747  282           
00 20.09.17 350 (С) 10 км    ясно 
+16.1 +4.8 47 +17  1011.3  -0.6  746  283           
03 20.09.17 010 (С) 10 км  гроза, пыльная буря  ясно 
+14.6 +5.1 53 +15  1010.3  -1.1  746  284           
06 20.09.17 080 (В) 20000 м    ясно 500 м 
+19 +7.4 47 +21  1010.2  0.1  746  280  +14.4         
09 20.09.17 190 (Ю) 20000 м    9/0 средняя 
[Ac As]
+24.5 +14 52 +32  1010.1  0.3  746  273           
12 20.09.17 320 (СЗ) 20000 м    10/10 600 м 
[Sc]
+25 +13.6 49 +31  1009.4  -0.7  745  272           
15 20.09.17 070 (В) 20000 м    6/4 600 м средняя 
[Sc diur, vesp|Ac trans]
+25.6 +15 52 +34  1007.2  -2.1  744  271           
18 20.09.17 120 (ЮВ) 10 км    10/10 600 м 
[Sc]
+21.8 +16.7 73 +34  1006.5  -0.9  743  274    +26.4       
21 20.09.17 120 (ЮВ) 10 км    6/6 600 м 
[Cu Sc]
+21.3 +17.7 80 +35  1006.7  0.2  743  274           
00 21.09.17 090 (В) 10 км    10/10 600 м кучево-дожд. 
[Cb calv]
+20.5 +18.3 87 +36  1006.1  -0.6  743  274           
03 21.09.17 тихо ()   10 км    10/10 600 м кучево-дожд. 
[Cb calv]
+20.2 +18.5 90 +36  1005.7  -0.5  743  274           
Время (UTC), дата Ветер
(°,м/с) 
Видим.   Явления Облачность Т
(°С)
Тd
(°С)
f(%) Тe
(°С)
Pmin
(гПа)
dP
(гПа)
Po
(мм)
O2
(г/м3)
Тmin Tmax R s Состояние
почвы

Для получения пояснительной информации подведите курсор к названию столбца.

ПОГОДА в Комрате - архив

Всё, что Вы хотите узнать о погоде в Комрате - удобно и подробно!

Выберите нужную дату (начиная с 1 января 2015* года) и нажмите кнопку "Найти".
Будут отображены архивные сводки погоды по пункту Комрат, начиная с указанной даты.


Отображать данные в формате CSV (для использования в таблицах Excel)


Внимание! Наш архив погоды предназначен исключительно для личного некоммерческого использования в познавательных целях. Если Вам необходимы официальные справки о состоянии погоды (для производственных, юридических, коммерческих и т.п. целей), обращайтесь в органы Росгидромета.

*Примечание: данная дата относится к архиву по метеостанциям СССР (Россия, СНГ, Балтия).
Архив по метеостанциям Зарубежной Европы и Азии (кроме Китая) хранится 10 дней, по другим регионам земного шара (Китай, Африка, Америка, Австралия, Океания) - 1 день.

Комрат - район местоположения метеостанции


Название, широта, долгота, высота метеостанции:
Комрат 46.3°ш. 28.6°д. 133 м над ур. моря [Молдавия]

Дополнительная информация

В oтличие oт бoльшинства пoгoдных сайтoв мы публикуем пoдрoбную метеoинфoрмацию в детальнoм прoфессиoнальнoм фoрмате.

Характеристики температуры и влажнoсти вoздуха измеряются на высoте 2 м в тени вдали oт зданий и деревьев.
Скoрoсть ветра измеряется на высoте 10 м (на урoвне рoста челoвека скoрoсть ветра ниже в 1.5-2 раза). Если метеoстанция нахoдится в гoрoде или в лесу, тo скoрoсть ветра занижена на 2-4 м/с пo сравнению с oткрытым местoм. Скoрoсть ветра над акватoриями крупных рек и oзёр, а также на вершинах хoлмoв на 2-5 м/с выше, чем в oбычных услoвиях.
Атмoсфернoе давление в разных тoчках местнoсти мoжет значительнo oтличаться oт давления на метеoстанции, в зависимoсти oт услoвий рельефа (при пoдъёме на 10 м давление пoнижается примернo на 1 мм рт.ст.).